DW1283 Carlisle Public School MA US current weather conditions

sailwx.info

Wind from 269

Air temperature 22.8° C
Dewpoint 21.6° C

Last reported at 2020-Aug-11 12:00 UTC.
Time now 2020-Aug-11 13:16 UTC

Location: N 42°32' W 071°21'.
View on Google Maps.

See reports from other nearby stations

  
Tides and Currents Weather Stations Pressure Air Temp Water Temp Dewpoint Dewpoint Depression Visibility Wind Speed Wind Dir Waves Ship Positions
date/time (UTC)wind fromknots sea level pressurealtimeterstation pressurevisibilityair tempwater tempwave heightnotes
2020-Aug-11 12:00 269 22.8
2020-Aug-11 11:45 269 22.2
2020-Aug-11 11:30 269 21.7
2020-Aug-11 11:15 269 21.1
2020-Aug-11 11:00 270 20.6
2020-Aug-11 10:45 270 20.0
2020-Aug-11 10:30 270 20.0
2020-Aug-11 10:15 270 20.0
2020-Aug-11 10:00 270 20.0
2020-Aug-11 09:45 270 20.0
2020-Aug-11 09:30 270 20.6
2020-Aug-11 09:15 270 20.6
2020-Aug-11 09:00 270 20.6
2020-Aug-11 08:45 270 20.6
2020-Aug-11 08:30 270 21.1
2020-Aug-11 08:15 270 21.1
2020-Aug-11 08:00 270 21.1
2020-Aug-11 07:45 270 21.7
2020-Aug-11 07:30 270 21.7
2020-Aug-11 07:15 270 21.7
2020-Aug-11 07:00 270 22.2
2020-Aug-11 06:45 270 22.2
2020-Aug-11 06:16 270 22.8
2020-Aug-11 06:02 270 22.8
2020-Aug-11 05:46 270 23.3
2020-Aug-11 05:33 270 23.3
2020-Aug-11 05:16 269 23.3
2020-Aug-11 05:01 269 23.3
2020-Aug-11 04:47 269 23.9
2020-Aug-11 04:31 269 23.9
2020-Aug-11 04:16 269 24.4
2020-Aug-11 04:01 269 24.4
2020-Aug-11 03:46 269 24.4
2020-Aug-11 03:31 269 25.0
2020-Aug-11 03:16 269 25.0
2020-Aug-11 03:00 269 25.0
2020-Aug-11 02:46 269 25.6
2020-Aug-11 02:31 269 25.6
2020-Aug-11 02:16 269 26.1
2020-Aug-11 02:00 269 26.1
2020-Aug-11 01:46 271 26.1
2020-Aug-11 01:31 272 26.7
2020-Aug-11 01:16 271 26.7
2020-Aug-11 01:01 323 26.7
2020-Aug-11 00:46 280 27.2
2020-Aug-11 00:31 280 27.8
2020-Aug-11 00:15 280 28.3
2020-Aug-11 00:01 280 28.9
2020-Aug-10 23:46 280 30.0
2020-Aug-10 23:30 280 30.6
2020-Aug-10 23:16 280 31.1
2020-Aug-10 23:00 280 31.7
2020-Aug-10 22:46 280 32.8
2020-Aug-10 22:30 279 33.9
2020-Aug-10 22:15 287 33.9
2020-Aug-10 22:00 266 33.9
2020-Aug-10 21:46 284 0 34.4
2020-Aug-10 21:30 273 0 34.4
2020-Aug-10 21:15 285 33.9
2020-Aug-10 21:00 285 33.9
2020-Aug-10 20:46 253 0 35.0
2020-Aug-10 20:30 269 36.1
2020-Aug-10 20:15 218 36.7
2020-Aug-10 20:00 209 36.7
2020-Aug-10 19:45 275 36.7
2020-Aug-10 19:30 300 36.7
2020-Aug-10 19:15 275 36.7
2020-Aug-10 19:00 259 0 36.1
2020-Aug-10 18:45 275 0 36.1
2020-Aug-10 18:30 213 0 36.1
2020-Aug-10 18:15 316 36.1
2020-Aug-10 18:00 300 36.1
2020-Aug-10 17:45 219 0 35.6
2020-Aug-10 17:30 159 0 35.6
2020-Aug-10 17:16 294 0 34.4
2020-Aug-10 17:01 279 0 34.4
2020-Aug-10 16:46 311 0 34.4
2020-Aug-10 16:31 284 0 34.4
2020-Aug-10 16:16 267 33.3
2020-Aug-10 16:01 311 0 33.9
2020-Aug-10 15:46 217 33.9
2020-Aug-10 15:33 299 0 33.3
2020-Aug-10 15:16 298 32.8
2020-Aug-10 15:01 217 32.8
2020-Aug-10 14:45 296 32.2
2020-Aug-10 14:30 272 31.7
2020-Aug-10 14:16 302 30.6
2020-Aug-10 14:01 261 30.0
2020-Aug-10 13:45 208 28.3
2020-Aug-10 13:30 262 27.8
2020-Aug-10 13:16 261 26.7
2020-Aug-10 13:00 279 26.1
2020-Aug-10 12:45 279 26.1
2020-Aug-10 12:30 278 25.0
2020-Aug-10 12:15 278 23.3
2020-Aug-10 12:00 275 22.8
2020-Aug-10 11:45 276 22.2
2020-Aug-10 11:31 126 21.7
2020-Aug-10 11:30 126 21.7
2020-Aug-10 11:17 125 21.1
2020-Aug-10 10:46 236 20.6
2020-Aug-10 10:31 236 20.6
2020-Aug-10 10:17 236 21.1
2020-Aug-10 10:01 236 21.1
2020-Aug-10 09:46 236 21.1
2020-Aug-10 09:31 236 21.7
2020-Aug-10 09:16 236 21.7
2020-Aug-10 09:00 236 21.7
2020-Aug-10 08:46 236 21.7
2020-Aug-10 08:31 236 21.7
2020-Aug-10 08:17 236 21.7
2020-Aug-10 08:02 236 21.7
2020-Aug-10 07:46 236 21.7
2020-Aug-10 07:31 236 21.7
2020-Aug-10 07:16 236 21.7
2020-Aug-10 07:01 236 21.7
2020-Aug-10 06:46 236 21.7
2020-Aug-10 06:31 236 21.7
2020-Aug-10 06:16 236 21.7
2020-Aug-10 06:00 236 22.2
2020-Aug-10 05:45 236 22.2
2020-Aug-10 05:31 236 22.2
2020-Aug-10 05:16 236 22.8
2020-Aug-10 05:00 236 22.8
2020-Aug-10 04:45 236 22.8
2020-Aug-10 04:30 236 23.3
2020-Aug-10 04:16 236 23.3
2020-Aug-10 04:00 236 23.9
2020-Aug-10 03:45 236 23.9
2020-Aug-10 03:30 236 24.4
2020-Aug-10 03:15 236 24.4
2020-Aug-10 03:00 236 25.0
2020-Aug-10 02:45 236 25.0
2020-Aug-10 02:30 236 25.0
2020-Aug-10 02:15 204 25.6
2020-Aug-10 02:00 202 25.6
2020-Aug-10 01:45 202 26.1
2020-Aug-10 01:30 203 26.1
2020-Aug-10 01:15 203 26.7
2020-Aug-10 01:00 203 26.7
2020-Aug-10 00:45 202 27.2
2020-Aug-10 00:30 203 27.8
2020-Aug-10 00:15 266 27.8
2020-Aug-10 00:00 269 28.3
2020-Aug-09 23:45 276 29.4
2020-Aug-09 23:30 276 30.0
2020-Aug-09 23:15 276 31.1
2020-Aug-09 23:00 276 31.7
2020-Aug-09 22:45 276 31.7
2020-Aug-09 22:30 276 32.2
2020-Aug-09 22:15 275 0 32.8
2020-Aug-09 22:00 144 33.3
2020-Aug-09 21:45 140 33.3
2020-Aug-09 21:30 256 0 33.3
2020-Aug-09 21:15 118 33.9
2020-Aug-09 21:00 246 33.9
2020-Aug-09 20:47 311 33.3
2020-Aug-09 20:32 314 33.9
2020-Aug-09 20:16 260 0 34.4
2020-Aug-09 20:01 221 34.4
2020-Aug-09 19:46 161 34.4
2020-Aug-09 19:31 269 35.6
2020-Aug-09 19:16 235 35.6
2020-Aug-09 19:01 183 35.6
2020-Aug-09 18:46 229 35.6
2020-Aug-09 18:31 198 0 35.0
2020-Aug-09 18:17 200 0 35.6
2020-Aug-09 18:01 259 0 35.0
2020-Aug-09 17:46 199 0 34.4
2020-Aug-09 17:31 205 0 34.4
2020-Aug-09 17:16 203 33.3
2020-Aug-09 17:01 248 33.9
2020-Aug-09 16:45 142 34.4
2020-Aug-09 16:31 149 34.4
2020-Aug-09 16:15 160 33.9
2020-Aug-09 16:00 196 33.3
2020-Aug-09 15:46 227 33.3
2020-Aug-09 15:30 225 32.8
2020-Aug-09 15:15 159 31.7
2020-Aug-09 15:00 180 31.7
2020-Aug-09 14:45 188 30.6
2020-Aug-09 14:30 219 29.4
2020-Aug-09 14:15 220 28.9
2020-Aug-09 14:01 228 28.3
2020-Aug-09 13:46 279 27.8
2020-Aug-09 13:31 280 26.7
2020-Aug-09 13:16 277 25.6
2020-Aug-09 13:02 277 24.4